Hourly Weather Roundup
Issued by NWS

Home | Current Version | Previous Version | Text Only | Print | Product List | Glossary On
Versions: 1 2 3 4 5 6 7 8 9 10 11 12 13 14 15 16 17 18 19 20 21 22 23 24 25 26 27 28 29 30 31 32 33 34 35 36 37 38 39 40 41 42 43 44 45 46 47 48 49 50
000
NZUS43 KILX 031510
HWRCRS

CRS HOURLY WEATHER ROUNDUP
NATIONAL WEATHER SERVICE, LINCOLN IL
1000 AM CDT FRI JUL 03 2015


CITY           SKY/WX    TMP DP  RH WIND       PRES   REMARKS
CHAMPAIGN      PTSUNNY   70  62  76 NE7       29.93S
LAWRENCEVILLE  CLOUDY    74  68  81 N6        29.88R
PEORIA         MOSUNNY   70  59  68 NE6       29.96S
SPRINGFIELD    PTSUNNY   71  62  73 VRB5      29.93F
$$


CITY           SKY/WX    TMP DP  RH WIND       PRES   REMARKS
BLOOMINGTON    CLOUDY    67  61  81 NE9       29.96F
DECATUR        MOSUNNY   70  62  76 E8        29.92F
EFFINGHAM      CLOUDY    72  64  75 N6        29.92R
FLORA          MOSUNNY   74  67  79 N5        29.89S
GALESBURG      MOSUNNY   69  60  72 N6        29.97F
JACKSONVILLE   MOSUNNY   71  64  78 N6        29.93F
LACON          MOSUNNY   69  58  65 NE3       29.96F
LINCOLN        PTSUNNY   71  61  72 N6        29.94F
LITCHFIELD     MOSUNNY   69  63  80 NE5       29.92S

CITY           SKY/WX    TMP DP  RH WIND       PRES   REMARKS
MACOMB         MOSUNNY   67  61  79 NE7       29.99S
MATTOON        PTSUNNY   71  64  78 NE6       29.90S
MOLINE         PTSUNNY   67  54  63 CALM      29.98F
OLNEY          CLOUDY    73  68  83 N5        29.89R
PARIS          CLOUDY    70  64  82 NE5       29.91S
PONTIAC        CLOUDY    68  61  77 NE5       29.97S
QUINCY         SUNNY     70  62  76 N6        29.96R
RANTOUL        CLOUDY    71  62  74 E7        29.93S
ROBINSON       CLOUDY    72  66  82 NE7       29.89S
TAYLORVILLE    CLOUDY    68  63  83 N6        29.93R
TERRE HAUTE    CLOUDY    73  65  75 NE6       29.89F
$$


CITY           SKY/WX    TMP DP  RH WIND       PRES   REMARKS
BURLINGTON     MOSUNNY   69  61  75 N6        29.97S
CHICAGO        PTSUNNY   68  56  65 E5        29.98S
DES MOINES     MOSUNNY   71  54  54 N5        30.00S
EVANSVILLE     CLOUDY    74  69  85 CALM      29.87R HAZE
INDIANAPOLIS   PTSUNNY   67  59  75 N12       29.89F
KANSAS CITY    PTSUNNY   72  63  73 VRB6      29.97R
MILWAUKEE      PTSUNNY   65  53  65 NE3       30.00S
ST LOUIS       MOSUNNY   74  64  71 NW8       29.93R
$$




USA.gov is the U.S. government's official web portal to all federal, state and local government web resources and services.